Tracking 31013 objects as of 11-Jul-2025
HD Live streaming from Space Station
objects crossing your sky now

COSMOS 1275 DEB

Track COSMOS 1275 DEB now!
10-day predictions


NORAD ID: 39938
Int'l Code: 1981-053NE
Perigee: 914.6 km
Apogee: 1,111.2 km
Inclination: 83.1 °
Period: 105.2 minutes
Semi major axis: 7383 km
RCS: 0.0075 m2 (small)
Launch date: April 25, 1981
Source: Commonwealth of Independent States (former USSR) (CIS)
Launch site: PLESETSK MISSILE AND SPACE COMPLEX (PKMTR)

Note: This is SATELLITE DEBRIS
Your satellite tracking list
Your tracking list is empty




NASA's NSSDC Master Catalog

Two Line Element Set (TLE):
1 39938U 81053MY  25189.91128003  .00000907  00000-0  98327-3 0  9996
2 39938  83.0692   1.3606 0133163 200.1811 159.4050 13.68278518552283
Source of the keplerian elements: AFSPC